International Skating Union - Official Site

ISU World Single Distance Championships 2015
February 12-15, 2015

Draw | Lap Times | Index | Classification

Referee: Susan  SANDVIG-SHOBE  (USA)
Starter: John Magne  ELIASSEN  (NOR)
StartTime: EndTime: Air Temp: Ice Temp: Humidity:
18:00 19:11
Result 3000m Ladies
Rankings as of Feb 12 2015 7:21PM
Rank: No.: Name: Nation: Time: Behind: Points:
1 17 Martina  Sábliková CZE CZE 4:02.17200m - 20.30 - (20.3)
600m - 51.16 - (30.8)
1000m - 1:22.69 - (31.5)
1400m - 1:54.73 - (32.0)
1800m - 2:26.57 - (31.8)
2200m - 2:58.35 - (31.7)
2600m - 3:30.01 - (31.6)
3000m - 4:02.17 - (32.1)
40.361
2 57 Ireen  Wüst NED NED 4:03.46200m - 19.62 - (19.6)
600m - 50.07 - (30.4)
1000m - 1:22.02 - (31.9)
1400m - 1:53.80 - (31.7)
1800m - 2:25.49 - (31.6)
2200m - 2:57.36 - (31.8)
2600m - 3:30.02 - (32.6)
3000m - 4:03.46 - (33.4)
1.29 40.576
3 48 Marije  Joling NED NED 4:05.51200m - 19.88 - (19.8)
600m - 50.92 - (31.0)
1000m - 1:22.08 - (31.1)
1400m - 1:53.56 - (31.4)
1800m - 2:25.60 - (32.0)
2200m - 2:58.11 - (32.5)
2600m - 3:31.17 - (33.0)
3000m - 4:05.51 - (34.3)
3.34 40.918
4 55 Jorien  Voorhuis NED NED 4:05.76200m - 19.66 - (19.6)
600m - 50.98 - (31.3)
1000m - 1:22.96 - (31.9)
1400m - 1:55.14 - (32.1)
1800m - 2:27.40 - (32.2)
2200m - 2:59.85 - (32.4)
2600m - 3:32.54 - (32.6)
3000m - 4:05.76 - (33.2)
3.59 40.960
5 25 Claudia  Pechstein GER GER 4:05.95200m - 20.38 - (20.3)
600m - 51.60 - (31.2)
1000m - 1:23.12 - (31.5)
1400m - 1:55.16 - (32.0)
1800m - 2:27.50 - (32.3)
2200m - 3:00.21 - (32.7)
2600m - 3:33.04 - (32.8)
3000m - 4:05.95 - (32.9)
3.78 40.991
6 23 Bente  Kraus GER GER 4:09.75200m - 20.78 - (20.7)
600m - 52.51 - (31.7)
1000m - 1:24.44 - (31.9)
1400m - 1:56.84 - (32.4)
1800m - 2:29.56 - (32.7)
2200m - 3:02.73 - (33.1)
2600m - 3:36.14 - (33.4)
3000m - 4:09.75 - (33.6)
7.58 41.625
7 5 Ivanie  Blondin CAN CAN 4:09.85200m - 20.48 - (20.4)
600m - 51.86 - (31.3)
1000m - 1:24.29 - (32.4)
1400m - 1:56.64 - (32.3)
1800m - 2:29.14 - (32.5)
2200m - 3:02.05 - (32.9)
2600m - 3:35.52 - (33.4)
3000m - 4:09.85 - (34.3)
7.68 41.641
8 67 Olga  Graf RUS RUS 4:10.32200m - 20.56 - (20.5)
600m - 51.69 - (31.1)
1000m - 1:23.90 - (32.2)
1400m - 1:56.49 - (32.5)
1800m - 2:29.50 - (33.0)
2200m - 3:02.66 - (33.1)
2600m - 3:36.36 - (33.7)
3000m - 4:10.32 - (33.9)
8.15 41.720
9 63 Luiza  Zlotkowska POL POL 4:11.04200m - 20.13 - (20.1)
600m - 52.05 - (31.9)
1000m - 1:24.42 - (32.3)
1400m - 1:57.37 - (32.9)
1800m - 2:29.97 - (32.6)
2200m - 3:03.25 - (33.2)
2600m - 3:37.19 - (33.9)
3000m - 4:11.04 - (33.8)
8.87 41.840
10 65 Anna  Chernova RUS RUS 4:11.82200m - 21.06 - (21.0)
600m - 53.23 - (32.1)
1000m - 1:25.22 - (32.0)
1400m - 1:57.69 - (32.4)
1800m - 2:30.56 - (32.8)
2200m - 3:03.93 - (33.3)
2600m - 3:37.64 - (33.7)
3000m - 4:11.82 - (34.1)
9.65 41.970
11 59 Ida  Njåtun NOR NOR 4:12.00200m - 19.92 - (19.9)
600m - 50.95 - (31.0)
1000m - 1:23.15 - (32.2)
1400m - 1:55.81 - (32.6)
1800m - 2:29.09 - (33.2)
2200m - 3:03.00 - (33.9)
2600m - 3:37.26 - (34.2)
3000m - 4:12.00 - (34.7)
9.83 42.000
12 30 Ayaka  Kikuchi JPN JPN 4:14.61200m - 20.13 - (20.1)
600m - 51.39 - (31.2)
1000m - 1:23.50 - (32.1)
1400m - 1:56.28 - (32.7)
1800m - 2:29.74 - (33.4)
2200m - 3:03.94 - (34.2)
2600m - 3:38.92 - (34.9)
3000m - 4:14.61 - (35.6)
12.44 42.435
13 71 Natalya  Voronina RUS RUS 4:14.90200m - 20.61 - (20.6)
600m - 53.10 - (32.4)
1000m - 1:26.24 - (33.1)
1400m - 1:59.06 - (32.8)
1800m - 2:32.91 - (33.8)
2200m - 3:06.56 - (33.6)
2600m - 3:40.99 - (34.4)
3000m - 4:14.90 - (33.9)
12.73 42.483
14 4 Marina  Zuyeva BLR BLR 4:15.09200m - 20.98 - (20.9)
600m - 53.12 - (32.1)
1000m - 1:25.80 - (32.6)
1400m - 1:59.01 - (33.2)
1800m - 2:32.76 - (33.7)
2200m - 3:07.01 - (34.2)
2600m - 3:41.24 - (34.2)
3000m - 4:15.09 - (33.8)
12.92 42.515
15 24 Isabell  Ost GER GER 4:15.34200m - 20.33 - (20.3)
600m - 51.84 - (31.5)
1000m - 1:23.96 - (32.1)
1400m - 1:56.82 - (32.8)
1800m - 2:30.37 - (33.5)
2200m - 3:04.87 - (34.5)
2600m - 3:40.04 - (35.1)
3000m - 4:15.34 - (35.3)
13.17 42.556
16 28 Francesca  Lollobrigida ITA ITA 4:15.47200m - 20.41 - (20.4)
600m - 52.11 - (31.7)
1000m - 1:24.88 - (32.7)
1400m - 1:57.90 - (33.0)
1800m - 2:32.03 - (34.1)
2200m - 3:06.35 - (34.3)
2600m - 3:41.42 - (35.0)
3000m - 4:15.47 - (34.0)
13.30 42.578
17 62 Katarzyna  Wozniak POL POL 4:15.75200m - 20.66 - (20.6)
600m - 52.98 - (32.3)
1000m - 1:25.82 - (32.8)
1400m - 1:58.85 - (33.0)
1800m - 2:32.21 - (33.3)
2200m - 3:06.36 - (34.1)
2600m - 3:40.74 - (34.3)
3000m - 4:15.75 - (35.0)
13.58 42.625
18 35 Nana  Takagi JPN JPN 4:17.21200m - 19.88 - (19.8)
600m - 51.27 - (31.3)
1000m - 1:23.46 - (32.1)
1400m - 1:56.49 - (33.0)
1800m - 2:30.15 - (33.6)
2200m - 3:05.10 - (34.9)
2600m - 3:40.56 - (35.4)
3000m - 4:17.21 - (36.6)
15.04 42.868
19 39 Bo-Reum  Kim KOR KOR 4:17.82200m - 21.15 - (21.1)
600m - 53.87 - (32.7)
1000m - 1:26.41 - (32.5)
1400m - 1:59.27 - (32.8)
1800m - 2:32.28 - (33.0)
2200m - 3:06.45 - (34.1)
2600m - 3:41.55 - (35.1)
3000m - 4:17.82 - (36.2)
15.65 42.970
20 15 Xin  Zhao CHN CHN 4:18.25200m - 20.46 - (20.4)
600m - 52.11 - (31.6)
1000m - 1:24.25 - (32.1)
1400m - 1:57.55 - (33.3)
1800m - 2:31.31 - (33.7)
2200m - 3:06.27 - (34.9)
2600m - 3:41.71 - (35.4)
3000m - 4:18.25 - (36.5)
16.08 43.041